This is the latest recevied weather packets stored in our database for station/object WD4DAN-13. If no packets are shown the sender has not sent any weather packets the latest 10 day(s).
| Time | Temp. | Humidity | Pressure | Rain* | Wind** | Luminosity | Snow |
|---|---|---|---|---|---|---|---|
| 1777926836 | 26.67° C | 37% | - | 0 mm | - | - | - |
| 1777926532 | 26.67° C | 39% | - | 0 mm | - | - | - |
| 1777926229 | 27.22° C | 39% | - | 0 mm | - | - | - |
| 1777925925 | 27.22° C | 40% | - | 0 mm | - | - | - |
| 1777925623 | 26.67° C | 38% | - | 0 mm | - | - | - |
| 1777925320 | 26.11° C | 38% | - | 0 mm | - | - | - |
| 1777925017 | 26.67° C | 38% | - | 0 mm | - | - | - |
| 1777924713 | 26.67° C | 36% | - | 0 mm | - | - | - |
| 1777924409 | 27.22° C | 40% | - | 0 mm | - | - | - |
| 1777924106 | 27.22° C | 39% | - | 0 mm | - | - | - |
| 1777923802 | 25.56° C | 38% | - | 0 mm | - | - | - |
| 1777923498 | 26.67° C | 41% | - | 0 mm | - | - | - |
| 1777923196 | 26.67° C | 37% | - | 0 mm | - | - | - |
| 1777922894 | 26.11° C | 40% | - | 0 mm | - | - | - |
| 1777922592 | 26.67° C | 39% | - | 0 mm | - | - | - |
| 1777922290 | 26.67° C | 41% | - | 0 mm | - | - | - |
| 1777921987 | 25.56° C | 41% | - | 0 mm | - | - | - |
| 1777921683 | 25.56° C | 41% | - | 0 mm | - | - | - |
| 1777921379 | 25.56° C | 38% | - | 0 mm | - | - | - |
| 1777921075 | 25.56° C | 40% | - | 0 mm | - | - | - |
| 1777920773 | 25.56° C | 41% | - | 0 mm | - | - | - |
| 1777920469 | 25.56° C | 42% | - | 0 mm | - | - | - |
| 1777920165 | 25.56° C | 43% | - | 0 mm | - | - | - |
| 1777919860 | 25.56° C | 41% | - | 0 mm | - | - | - |
| 1777919557 | 26.11° C | 45% | - | 0 mm | - | - | - |
* Rain latest hour (hover to see other rain measurements)
** Current wind speed in m/s (hover to see current wind gust speed)